Simultaneous Nadir Overpasses (SNOs) Predictions

Prediction of SNOs between GOES-17 and METOP-C Satellite Orbit:

Table of predicted SNOs for the next 14.0 days since TLE Epoch: 2/17/2024
Index Date Time (GOES-17) GOES-17 Lat,Lon METOP-C Lat,Lon Distance(km) Time Diff (sec)
1 02/19/2024 04:24:35 0.00,-104.68 0.12,-104.10 65.47 80
2 02/20/2024 16:43:27 0.00,-104.68 0.91,-108.66 454.35 80
3 02/21/2024 16:25:28 -0.00,-104.68 -0.24,-103.68 114.47 80
4 02/23/2024 04:44:29 0.00,-104.68 -0.81,-108.27 409.95 80
5 02/24/2024 04:21:11 0.01,-104.68 0.35,-103.29 158.84 80
6 02/25/2024 16:40:02 -0.00,-104.68 0.68,-107.85 360.62 80
7 02/26/2024 16:22:03 -0.01,-104.68 -0.41,-102.85 208.64 80
8 02/28/2024 04:41:04 0.00,-104.69 -0.60,-107.45 314.85 80
9 02/29/2024 04:17:45 0.01,-104.69 0.50,-102.46 254.09 80
10 03/01/2024 16:36:36 -0.00,-104.68 0.53,-107.01 265.72 80
